Powrót do katalogu

STARLINK-31120

AktywnyŁącznośćVLEO
NORAD 58778·PAYLOAD·🇺🇸 United States

Wystrzelony Jan 14, 2024 z Vandenberg Space Force Base

Loading…

Następne Przeloty (najbliższe 24 godziny)

TLE

ŚwieżeSource: CelesTrak SupGP

Epoka: Sep 14, 2026, 21:12 UTC

1 58778C 24011P   26257.88381944  .00026732  00000+0  78954-3 0  2572
2 58778  53.1585 212.0515 0001478  93.5519  14.3885 15.34387732    15

Śledź STARLINK-31120 w czasie rzeczywistym z AllMySat

Download on the App Store